Rhinelander, WI

5:45 AM CDT on June 25, 2017 (GMT -0500)
Rhinelander-Oneida County

Weather History for KRHI - January, 2014

Change the Weather History Date:

Thursday, January 2, 2014

  Actual Average Record
Temperature  
Mean Temperature -7 °F 13 °F  
Max Temperature 5 °F 22 °F 42 °F (1998)
Min Temperature -19 °F 4 °F -29 °F (1974)
Degree Days  
Heating Degree Days 72 52  
Month to date heating degree days 146 104  
Since 1 July heating degree days 4151 3730  
Cooling Degree Days 0 0  
Month to date cooling degree days 0 0  
Year to date cooling degree days 0 0  
Moisture  
Dew Point -11 °F    
Average Humidity 77    
Maximum Humidity 92    
Minimum Humidity 62    
Precipitation  
Precipitation T in 0.04 in 0.83 in (2000)
Month to date precipitation T 0.08  
Year to date precipitation T 0.08  
Snow  
Snow T in - 8.30 in (1911)
Month to date snowfall T  
Since 1 July snowfall 32.9  
Snow Depth 12.00 in    
Sea Level Pressure  
Sea Level Pressure 30.41 in    
Wind  
Wind Speed 3 mph (North)    
Max Wind Speed 13 mph    
Max Gust Speed 19 mph    
Visibility 10 miles    
Events Snow    
T = Trace of Precipitation, MM = Missing Value Source: NWS Daily Summary

Daily Weather History Graph

Daily Weather History Graph

Search for Another Location

Airport or City:

Trip Planner

Search our weather history database for the weather conditions in past years. The results will help you decide how hot, cold, wet, or windy it might be!

Date:

Astronomy

Jan. 02, 2014 Rise Set
Actual Time 7:38 AM CST 4:25 PM CST
Civil Twilight 7:04 AM CST 4:59 PM CST
Nautical Twilight 6:26 AM CST 5:37 PM CST
Astronomical Twilight 5:50 AM CST 6:13 PM CST
Moon 8:13 AM CST (1/2) 6:29 PM CST (1/2)
Length of Visible Light 9h 55m
Length of Day
8h 47m
Waxing Crescent, 3% of the Moon is Illuminated
Jan 2
Waxing Crescent
Jan 7
First Quarter
Jan 15
Full
Jan 23
Last Quarter
Jan 30
New

Hourly Weather History & Observations

Time (CST) Temp. Windchill Dew Point Humidity Pressure Visibility Wind Dir Wind Speed Gust Speed Precip Events Conditions
12:53 AM -5.1 °F - -9.0 °F 83% 30.43 in 10.0 mi Calm Calm - N/A   Overcast
1:53 AM -5.1 °F -15.8 °F -9.9 °F 80% 30.43 in 10.0 mi North 4.6 mph - N/A   Overcast
2:53 AM -6.0 °F -16.9 °F -9.9 °F 83% 30.42 in 10.0 mi North 4.6 mph - N/A   Mostly Cloudy
3:53 AM -5.1 °F -15.8 °F -9.9 °F 80% 30.41 in 5.0 mi North 4.6 mph - 0.00 in Snow Light Snow
4:30 AM -6.0 °F - -9.9 °F 83% 30.27 in 5.0 mi Calm Calm - 0.00 in Snow Light Snow
4:45 AM -7.1 °F - -11.0 °F 83% 30.27 in 10.0 mi Calm Calm - 0.00 in   Scattered Clouds
4:53 AM -7.1 °F - -11.0 °F 83% 30.41 in 10.0 mi Calm Calm - 0.00 in   Partly Cloudy
5:53 AM -11.9 °F - -15.0 °F 86% 30.43 in 10.0 mi Calm Calm - N/A   Clear
6:53 AM -9.0 °F -20.4 °F -13.0 °F 83% 30.43 in 10.0 mi North 4.6 mph - N/A   Clear
7:53 AM -11.0 °F -20.4 °F -15.0 °F 83% 30.44 in 10.0 mi North 3.5 mph - N/A   Scattered Clouds
8:53 AM -9.0 °F -18.2 °F -11.0 °F 91% 30.45 in 10.0 mi North 3.5 mph - N/A   Clear
9:53 AM -2.9 °F -11.2 °F -8.0 °F 79% 30.45 in 10.0 mi NE 3.5 mph - N/A   Clear
10:53 AM 1.0 °F -6.7 °F -7.1 °F 69% 30.44 in 10.0 mi NNE 3.5 mph - N/A   Clear
11:53 AM 1.9 °F -12.9 °F -7.1 °F 66% 30.42 in 10.0 mi North 9.2 mph - N/A   Scattered Clouds
12:53 PM 3.0 °F -8.0 °F -8.0 °F 60% 30.41 in 10.0 mi NNE 5.8 mph 17.3 mph 0.00 in   Clear
1:53 PM 3.9 °F -12.2 °F -7.1 °F 60% 30.41 in 10.0 mi NNE 11.5 mph - N/A   Scattered Clouds
2:31 PM 3.9 °F -8.2 °F -7.1 °F 60% 30.28 in 10.0 mi North 6.9 mph - N/A   Mostly Cloudy
2:53 PM 3.0 °F -9.3 °F -7.1 °F 63% 30.43 in 10.0 mi North 6.9 mph - N/A   Overcast
3:53 PM 3.0 °F -8.0 °F -7.1 °F 63% 30.44 in 10.0 mi Variable 5.8 mph - N/A   Overcast
4:53 PM 3.0 °F - -7.1 °F 63% 30.44 in 10.0 mi Calm Calm - N/A   Overcast
5:53 PM 1.0 °F - -7.1 °F 69% 30.45 in 10.0 mi Calm Calm - N/A   Overcast
6:53 PM -4.0 °F - -9.9 °F 76% 30.45 in 10.0 mi Calm Calm - N/A   Overcast
7:53 PM -9.0 °F -18.2 °F -11.9 °F 87% 30.45 in 10.0 mi West 3.5 mph - N/A   Mostly Cloudy
8:11 PM -9.0 °F -18.2 °F -11.9 °F 87% 30.29 in 10.0 mi West 3.5 mph - N/A   Scattered Clouds
8:53 PM -13.0 °F - -17.0 °F 82% 30.45 in 10.0 mi Calm Calm - N/A   Scattered Clouds
9:53 PM -16.1 °F - -20.0 °F 82% 30.45 in 10.0 mi Calm Calm - N/A   Clear
10:53 PM -16.1 °F - -18.0 °F 91% 30.43 in 10.0 mi Calm Calm - N/A   Clear
11:53 PM -17.0 °F - -20.9 °F 82% 30.42 in 10.0 mi Calm Calm - N/A   Clear